This is the latest recevied weather packets stored in our database for station/object K8BCO. If no packets are shown the sender has not sent any weather packets the latest 10 day(s).
| Time | Temp. | Humidity | Pressure | Rain* | Wind** | Luminosity | Snow |
|---|---|---|---|---|---|---|---|
| 1778201718 | 6.11° C | 57% | 1009.1 hPa | 0 mm | - | 2 W/m² | - |
| 1778201128 | 6.11° C | 62% | 1009 hPa | 0 mm | - | 6 W/m² | - |
| 1778200526 | 6.11° C | 58% | 1008.9 hPa | 0 mm | - | 7 W/m² | - |
| 1778199918 | 6.11° C | 57% | 1008.7 hPa | 0 mm | - | 12 W/m² | - |
| 1778199319 | 6.11° C | 57% | 1008.4 hPa | 0 mm | - | 30 W/m² | - |
| 1778198719 | 6.67° C | 55% | 1008.4 hPa | 0 mm | - | 45 W/m² | - |
| 1778198118 | 6.67° C | 54% | 1008.3 hPa | 0 mm | - | 78 W/m² | - |
| 1778197517 | 6.67° C | 55% | 1008.4 hPa | 0 mm | - | 78 W/m² | - |
| 1778196919 | 6.67° C | 54% | 1008.4 hPa | 0 mm | - | 57 W/m² | - |
| 1778196318 | 6.67° C | 53% | 1008.5 hPa | 0 mm | - | 77 W/m² | - |
| 1778195717 | 6.67° C | 53% | 1008.5 hPa | 0 mm | - | 97 W/m² | - |
| 1778195117 | 7.22° C | 53% | 1008.5 hPa | 0 mm | - | 130 W/m² | - |
| 1778194517 | 6.67° C | 53% | 1008.4 hPa | 0 mm | - | 234 W/m² | - |
| 1778193917 | 7.22° C | 54% | 1008.5 hPa | 0 mm | - | 155 W/m² | - |
| 1778193317 | 7.22° C | 53% | 1008.5 hPa | 0 mm | - | 160 W/m² | - |
| 1778192718 | 7.22° C | 51% | 1008.6 hPa | 0 mm | - | 167 W/m² | - |
| 1778192118 | 7.22° C | 52% | 1008.5 hPa | 0 mm | - | 246 W/m² | - |
| 1778191519 | 7.78° C | 53% | 1008.5 hPa | 0 mm | - | 137 W/m² | - |
| 1778190919 | 8.33° C | 51% | 1008.4 hPa | 0 mm | - | 352 W/m² | - |
| 1778190318 | 7.78° C | 51% | 1008.4 hPa | 0 mm | - | 377 W/m² | - |
| 1778189718 | 7.22° C | 49% | 1008.5 hPa | 0 mm | - | 300 W/m² | - |
| 1778189118 | 7.22° C | 51% | 1008.5 hPa | 0 mm | - | 251 W/m² | - |
| 1778188519 | 7.22° C | 50% | 1008.6 hPa | 0 mm | - | 296 W/m² | - |
| 1778187919 | 7.22° C | 50% | 1008.5 hPa | 0 mm | - | 331 W/m² | - |
| 1778187316 | 7.22° C | 51% | 1008.7 hPa | 0 mm | - | 295 W/m² | - |
* Rain latest hour (hover to see other rain measurements)
** Current wind speed in m/s (hover to see current wind gust speed)